This demonstration page uses our WeatherBlox Daily Observations layout. Learn more.

Hourly Observations for January 25, 2020

Temp ( °F °C ) Dew Point ( °F °C ) Humidity (%) Winds ( mph kmh ) Pressure ( in mb ) Visibility ( mi km ) Precip ( " mm )
12:08 am 00:08 Partly Cloudy 25 -3.9 22 -5.6 88 88 NW 5 7 30.16 1021 10 16.0934 0 0
12:54 am 00:54 Clear 20 -6.7 17 -8.3 89 89 Calm 30.13 1020 7 11.26538 0 0
1:54 am 01:54 Partly Cloudy 21 -6.1 18 -7.8 88 88 WNW 5 7 30.13 1020 9 14.48406 0 0
2:54 am 02:54 Clear 19 -7.2 17 -8.3 92 92 W 6 9 30.14 1021 9 14.48406 0 0
3:54 am 03:54 Clear 18 -7.8 15 -9.4 88 88 Calm 30.14 1021 8 12.87472 0 0
4:54 am 04:54 Partly Cloudy 16 -8.9 12 -11.1 84 84 Calm 30.13 1020 8 12.87472 0 0
5:54 am 05:54 Mostly Cloudy 15 -9.4 12 -11.1 88 88 Calm 30.13 1020 9 14.48406 0 0
6:54 am 06:54 Cloudy 19 -7.2 16 -8.9 88 88 Calm 30.13 1020 10 16.0934 0 0
7:03 am 07:03 Cloudy 19 -7.2 16 -8.9 88 88 Calm 30.19 1022 10 16.0934 0 0
7:54 am 07:54 Cloudy 21 -6.1 18 -7.8 88 88 Calm 30.15 1021 10 16.0934 0 0
8:54 am 08:54 Cloudy 24 -4.4 22 -5.6 91 91 Calm 30.14 1021 8 12.87472 0 0
9:54 am 09:54 Cloudy 27 -2.8 25 -3.9 92 92 ESE 5 7 30.14 1021 7 11.26538 0 0
10:54 am 10:54 Cloudy 28 -2.2 25 -3.9 88 88 SW 6 9 30.13 1020 7 11.26538 0 0
11:54 am 11:54 Cloudy 28 -2.2 25 -3.9 88 88 SSW 12 19 30.12 1020 7 11.26538 0 0
12:54 pm 12:54 Cloudy 29 -1.7 26 -3.3 89 89 SSW 9 15 30.1 1019 10 16.0934 0 0
1:54 pm 13:54 Mostly Cloudy 30 -1.1 26 -3.3 85 85 SSW 8 13 30.06 1018 10 16.0934 0 0
2:40 pm 14:40 Cloudy 30 -1.1 26 -3.3 85 85 S 7 11 30.07 1018 10 16.0934 0 0
2:47 pm 14:47 Cloudy 30 -1.1 26 -3.3 85 85 S 8 13 30.07 1018 10 16.0934 0 0
2:54 pm 14:54 Cloudy 30 -1.1 26 -3.3 85 85 S 8 13 30.05 1018 10 16.0934 0 0
3:33 pm 15:33 Cloudy 31 -0.6 26 -3.3 82 82 S 8 13 30.05 1018 8 12.87472 0 0
3:54 pm 15:54 Cloudy 31 -0.6 26 -3.3 82 82 S 12 19 30.03 1017 10 16.0934 0 0
4:18 pm 16:18 Cloudy 31 -0.6 26 -3.3 82 82 S 7 11 30.05 1018 9 14.48406 0 0
4:54 pm 16:54 Cloudy 31 -0.6 27 -2.8 85 85 S 7 11 30.04 1017 10 16.0934 0 0
5:18 pm 17:18 Cloudy 31 -0.6 27 -2.8 85 85 S 7 11 30.05 1018 9 14.48406 0 0
5:54 pm 17:54 Cloudy 31 -0.6 27 -2.8 85 85 S 3 6 30.06 1018 9 14.48406 0 0
6:54 pm 18:54 Cloudy 31 -0.6 28 -2.2 89 89 S 8 13 30.04 1017 7 11.26538 0 0
7:54 pm 19:54 Cloudy 31 -0.6 28 -2.2 89 89 SSE 6 9 30.05 1018 7 11.26538 0 0
8:54 pm 20:54 Cloudy 31 -0.6 29 -1.7 92 92 Calm 30.06 1018 7 11.26538 0 0
9:54 pm 21:54 Cloudy 32 0 29 -1.7 88 88 SSW 6 9 30.05 1018 9 14.48406 0 0
10:54 pm 22:54 Cloudy 32 0 29 -1.7 88 88 SSW 7 11 30.05 1018 8 12.87472 0 0
11:54 pm 23:54 Cloudy 32 0 30 -1.1 92 92 SSW 7 11 30.04 1017 7 11.26538 0 0

Powered by AerisWeather